Location: Abundant Grace Fellowship
(35.0349°N, 90.0924°W)
Time: 21:14:43
(UTC+00:00)

SL-19 R/B - Pass Details

Date: 18 January 2026
Orbit: 795 x 1008 km, 99.6° (Epoch: 10 February)

Event Time Altitude Azimuth Distance (km) Brightness Sun altitude
Rises 00:38:33 0° 158° (SSE) 3,631 7.4 -17.2°
Reaches altitude 10° 00:40:58 10° 156° (SSE) 2,711 6.7 -17.6°
Maximum altitude 00:47:04 72° 73° (ENE) 1,047 4.4 -18.8°
Drops below altitude 10° 00:53:21 10° 351° (N) 2,790 6.9 -20.1°
Sets 00:55:52 0° 349° (N) 3,743 7.6 -20.6°
